Lewistown, MT

4:33 AM MDT on September 26, 2017 (GMT -0600)
Lewistown Municipal

Weather History for KLWT - April, 2013

Change the Weather History Date:

Saturday, April 6, 2013

  Actual Average Record
Temperature  
Mean Temperature 44 °F 39 °F  
Max Temperature 56 °F 51 °F 80 °F (1930)
Min Temperature 32 °F 27 °F 1 °F (1975)
Degree Days  
Heating Degree Days 21 26  
Month to date heating degree days 126 160  
Since 1 July heating degree days 6680 6959  
Cooling Degree Days 0 0  
Month to date cooling degree days 0 0  
Year to date cooling degree days 0 0  
Moisture  
Dew Point 28 °F    
Average Humidity 53    
Maximum Humidity 70    
Minimum Humidity 35    
Precipitation  
Precipitation T in 0.04 in 0.74 in (2012)
Month to date precipitation T 0.25  
Year to date precipitation 2.13 2.25  
Snow  
Snow 0.00 in - - ()
Snow Depth 0.00 in    
Sea Level Pressure  
Sea Level Pressure 29.78 in    
Wind  
Wind Speed 8 mph (WSW)    
Max Wind Speed 21 mph    
Max Gust Speed 25 mph    
Visibility 10 miles    
Events Rain    
T = Trace of Precipitation, MM = Missing Value Source: NWS Daily Summary

Daily Weather History Graph

Daily Weather History Graph

Search for Another Location

Airport or City:

Trip Planner

Search our weather history database for the weather conditions in past years. The results will help you decide how hot, cold, wet, or windy it might be!

Date:

Astronomy

Apr. 06, 2013 Rise Set
Actual Time 6:46 AM MDT 7:54 PM MDT
Civil Twilight 6:15 AM MDT 8:25 PM MDT
Nautical Twilight 5:37 AM MDT 9:03 PM MDT
Astronomical Twilight 4:58 AM MDT 9:43 PM MDT
Moon 4:46 AM MDT (4/6) 4:14 PM MDT (4/6)
Length of Visible Light 14h 10m
Length of Day
13h 08m
Waning Crescent, 14% of the Moon is Illuminated
Apr 6
Waning Crescent
Apr 10
New
Apr 18
First Quarter
Apr 25
Full
May 2
Last Quarter

Hourly Weather History & Observations

Time (MDT) Temp. Windchill Dew Point Humidity Pressure Visibility Wind Dir Wind Speed Gust Speed Precip Events Conditions
12:54 AM 39.0 °F - 25.0 °F 57% 29.80 in 10.0 mi Calm Calm - N/A   Clear
1:54 AM 41.0 °F 33.5 °F 26.1 °F 55% 29.79 in 10.0 mi WSW 13.8 mph - N/A   Clear
2:54 AM 37.0 °F 34.5 °F 26.1 °F 65% 29.81 in 10.0 mi Variable 3.5 mph - N/A   Clear
3:54 AM 36.0 °F 30.3 °F 26.1 °F 67% 29.81 in 10.0 mi West 6.9 mph - N/A   Clear
4:54 AM 33.1 °F 27.7 °F 25.0 °F 72% 29.82 in 10.0 mi SW 5.8 mph - N/A   Clear
5:54 AM 35.1 °F 30.1 °F 25.0 °F 67% 29.81 in 10.0 mi East 5.8 mph - N/A   Clear
6:54 AM 37.9 °F - 24.1 °F 57% 29.80 in 10.0 mi Calm Calm - N/A   Clear
7:54 AM 37.9 °F 33.5 °F 26.1 °F 62% 29.82 in 10.0 mi South 5.8 mph - N/A   Clear
8:54 AM 48.9 °F - 26.1 °F 41% 29.79 in 10.0 mi WSW 5.8 mph - N/A   Clear
9:54 AM 52.0 °F - 26.1 °F 37% 29.79 in 10.0 mi WNW 10.4 mph 18.4 mph N/A   Mostly Cloudy
10:54 AM 52.0 °F - 25.0 °F 35% 29.79 in 10.0 mi WSW 8.1 mph - N/A   Overcast
11:54 AM 54.0 °F - 27.0 °F 35% 29.78 in 10.0 mi WSW 17.3 mph 24.2 mph N/A   Mostly Cloudy
12:54 PM 51.1 °F - 30.0 °F 44% 29.79 in 10.0 mi Variable 3.5 mph 16.1 mph 0.00 in Rain Light Rain
1:54 PM 51.1 °F - 33.1 °F 50% 29.78 in 10.0 mi SW 8.1 mph - 0.00 in   Overcast
2:54 PM 52.0 °F - 33.1 °F 49% 29.76 in 10.0 mi SW 5.8 mph - 0.00 in   Overcast
3:54 PM 55.9 °F - 32.0 °F 40% 29.73 in 10.0 mi SSW 6.9 mph - N/A   Scattered Clouds
4:54 PM 55.0 °F - 30.0 °F 38% 29.74 in 10.0 mi WSW 9.2 mph - N/A   Mostly Cloudy
5:54 PM 54.0 °F - 30.9 °F 41% 29.75 in 10.0 mi Variable 4.6 mph - 0.00 in   Overcast
6:54 PM 52.0 °F - 27.0 °F 38% 29.76 in 10.0 mi West 18.4 mph 25.3 mph N/A   Overcast
7:54 PM 50.0 °F - 27.0 °F 41% 29.77 in 10.0 mi West 10.4 mph - N/A   Overcast
8:54 PM 43.0 °F 37.2 °F 32.0 °F 65% 29.76 in 10.0 mi SSW 10.4 mph - N/A   Scattered Clouds
9:54 PM 43.0 °F 37.2 °F 32.0 °F 65% 29.76 in 10.0 mi SW 10.4 mph - N/A   Overcast
10:54 PM 42.1 °F 35.7 °F 28.0 °F 58% 29.77 in 10.0 mi SW 11.5 mph - N/A   Mostly Cloudy
11:54 PM 39.0 °F 31.8 °F 27.0 °F 62% 29.77 in 10.0 mi SW 11.5 mph - N/A   Clear